Tracking 28794 objects as of 21-Apr-2024
HD Live streaming from Space Station
objects crossing your sky now

STARLINK-6038

Track STARLINK-6038 now!
10-day predictions
STARLINK-6038 is classified as:


NORAD ID: 56317
Int'l Code: 2023-058A
Perigee: 568.6 km
Apogee: 571.7 km
Inclination: 97.7 °
Period: 95.9 minutes
Semi major axis: 6941 km
RCS: Unknown
Launch date: April 27, 2023
Source: United States (US)
Launch site: AIR FORCE WESTERN TEST RANGE (AFWTR)
Your satellite tracking list
Your tracking list is empty




NASA's NSSDC Master Catalog

Two Line Element Set (TLE):
1 56317U 23058A   24112.55778142  .00000993  00000-0  81881-4 0  9990
2 56317  97.6576 114.1318 0002169  79.4676 280.6793 15.01258190 54680
Source of the keplerian elements: AFSPC